AMX761 MMMX-SKBO

Flight info

Callsign AMX761
Flight time 3h 59m
Altitude 37000
Route UKUNO3A UKUNO UT108 VER DCT UGATA DCT ASOKU UM419 ANSON/N0460F380 UM419 AROVI/N0457F390 UM419 TBG UP527 UIB DCT ARMUM DCT TIRTO TIRTO5E
Aircraft B38M/M-SDE1FGHILORVWXY/HB1

Departure

Time 2026-05-06 16:55
Airport Mexico City Benito Juárez International Airport (MMMX)

Arrival

Time 2026-05-06 20:55
Airport El Dorado International Airport (SKBO)
Time Latitude Longitude Altitude Speed Heading
2026-05-06 16:19 19.42292 -99.08001 7305 ft 0 kts 210°
2026-05-06 16:41 19.42292 -99.08000 7305 ft 0 kts 210°
2026-05-06 16:44 19.42308 -99.07991 7305 ft 4 kts 210°
2026-05-06 16:44 19.42327 -99.07979 7305 ft 4 kts 219°
2026-05-06 16:45 19.42335 -99.07961 7305 ft 4 kts 289°
2026-05-06 16:45 19.42321 -99.07940 7305 ft 4 kts 311°
2026-05-06 16:45 19.42310 -99.07927 7305 ft 0 kts 311°
2026-05-06 16:50 19.42325 -99.07944 7305 ft 7 kts 311°
2026-05-06 16:50 19.42360 -99.07987 7305 ft 9 kts 310°
2026-05-06 16:51 19.42407 -99.08027 7305 ft 9 kts 328°
2026-05-06 16:51 19.42463 -99.08062 7305 ft 9 kts 330°
2026-05-06 16:51 19.42494 -99.08083 7305 ft 0 kts 314°
2026-05-06 16:51 19.42500 -99.08085 7305 ft 3 kts 329°
2026-05-06 16:52 19.42535 -99.08117 7305 ft 7 kts 294°
2026-05-06 16:52 19.42526 -99.08163 7305 ft 9 kts 240°
2026-05-06 16:52 19.42490 -99.08232 7305 ft 11 kts 255°
2026-05-06 16:52 19.42526 -99.08290 7305 ft 10 kts 322°
2026-05-06 16:53 19.42569 -99.08349 7305 ft 12 kts 294°
2026-05-06 16:53 19.42606 -99.08439 7305 ft 14 kts 293°
2026-05-06 16:53 19.42639 -99.08521 7305 ft 9 kts 293°
2026-05-06 16:53 19.42666 -99.08584 7306 ft 9 kts 297°
2026-05-06 16:54 19.42681 -99.08597 7307 ft 1 kts 352°
2026-05-06 16:54 19.42698 -99.08586 7307 ft 4 kts 52°
2026-05-06 16:54 19.42718 -99.08551 7306 ft 7 kts 59°
2026-05-06 16:54 19.42820 -99.08370 7306 ft 61 kts 59°
2026-05-06 16:55 19.43150 -99.07783 7307 ft 123 kts 59°
2026-05-06 16:55 19.43679 -99.06841 7305 ft 174 kts 59°
2026-05-06 16:55 19.44358 -99.05626 7492 ft 203 kts 59°
2026-05-06 16:55 19.45112 -99.04299 8306 ft 218 kts 58°
2026-05-06 16:56 19.45940 -99.02895 9171 ft 230 kts 57°
2026-05-06 16:56 19.46855 -99.01428 9354 ft 249 kts 56°
2026-05-06 16:56 19.47860 -98.99828 9569 ft 271 kts 57°
2026-05-06 16:56 19.48879 -98.98127 10364 ft 275 kts 57°
2026-05-06 16:57 19.49891 -98.96347 10883 ft 290 kts 59°
2026-05-06 16:57 19.50925 -98.94498 11458 ft 300 kts 59°
2026-05-06 16:57 19.51990 -98.92601 12306 ft 300 kts 59°
2026-05-06 16:57 19.53050 -98.90686 13092 ft 303 kts 64°
2026-05-06 16:58 19.53729 -98.88575 13865 ft 304 kts 76°
2026-05-06 16:58 19.54296 -98.86394 14524 ft 309 kts 75°
2026-05-06 16:58 19.54874 -98.84195 15209 ft 310 kts 75°
2026-05-06 16:58 19.55457 -98.81976 15877 ft 314 kts 76°
2026-05-06 16:59 19.56045 -98.79740 16566 ft 316 kts 76°
2026-05-06 16:59 19.56639 -98.77483 17203 ft 319 kts 76°
2026-05-06 16:59 19.57236 -98.75212 17859 ft 321 kts 76°
2026-05-06 16:59 19.57572 -98.72838 18135 ft 334 kts 94°
2026-05-06 17:00 19.57182 -98.70356 18220 ft 351 kts 102°
2026-05-06 17:00 19.56693 -98.67764 18363 ft 365 kts 101°
2026-05-06 17:00 19.56179 -98.65102 18762 ft 370 kts 102°
2026-05-06 17:00 19.55652 -98.62425 19242 ft 373 kts 102°
2026-05-06 17:01 19.55114 -98.59717 19687 ft 377 kts 102°
2026-05-06 17:01 19.54569 -98.56986 20149 ft 380 kts 102°
2026-05-06 17:01 19.54020 -98.54234 20588 ft 384 kts 102°
2026-05-06 17:01 19.53464 -98.51455 21034 ft 387 kts 101°
2026-05-06 17:02 19.52903 -98.48654 21467 ft 390 kts 101°
2026-05-06 17:02 19.52336 -98.45824 21909 ft 394 kts 101°
2026-05-06 17:02 19.51765 -98.42973 22329 ft 397 kts 101°
2026-05-06 17:02 19.51188 -98.40102 22762 ft 400 kts 101°
2026-05-06 17:03 19.50605 -98.37199 23322 ft 404 kts 101°
2026-05-06 17:03 19.50019 -98.34282 23580 ft 407 kts 101°
2026-05-06 17:03 19.49425 -98.31335 23932 ft 410 kts 101°
2026-05-06 17:03 19.48828 -98.28370 24289 ft 412 kts 101°
2026-05-06 17:04 19.48228 -98.25390 24651 ft 415 kts 101°
2026-05-06 17:04 19.47623 -98.22391 25003 ft 417 kts 102°
2026-05-06 17:04 19.47013 -98.19373 25334 ft 420 kts 102°
2026-05-06 17:04 19.46400 -98.16341 25682 ft 422 kts 102°
2026-05-06 17:05 19.45783 -98.13288 26024 ft 425 kts 102°
2026-05-06 17:05 19.45162 -98.10222 26382 ft 427 kts 102°
2026-05-06 17:05 19.44536 -98.07135 26715 ft 430 kts 102°
2026-05-06 17:05 19.43905 -98.04025 27038 ft 433 kts 102°
2026-05-06 17:06 19.43353 -98.00885 27360 ft 436 kts 96°
2026-05-06 17:06 19.43119 -97.97674 27678 ft 438 kts 95°
2026-05-06 17:06 19.42835 -97.94450 27993 ft 441 kts 96°
2026-05-06 17:06 19.42531 -97.91208 28310 ft 444 kts 96°
2026-05-06 17:07 19.42218 -97.87987 28617 ft 446 kts 96°
2026-05-06 17:07 19.41897 -97.84711 28931 ft 449 kts 96°
2026-05-06 17:07 19.41572 -97.81411 29230 ft 452 kts 96°
2026-05-06 17:07 19.41245 -97.78089 29537 ft 454 kts 97°
2026-05-06 17:08 19.40916 -97.74761 29827 ft 457 kts 97°
2026-05-06 17:08 19.40582 -97.71401 30103 ft 459 kts 97°
2026-05-06 17:08 19.40248 -97.68033 30378 ft 461 kts 97°
2026-05-06 17:08 19.39912 -97.64652 30654 ft 463 kts 97°
2026-05-06 17:09 19.39573 -97.61258 30920 ft 464 kts 97°
2026-05-06 17:09 19.39232 -97.57844 31171 ft 466 kts 97°
2026-05-06 17:09 19.38891 -97.54428 31451 ft 468 kts 97°
2026-05-06 17:09 19.38547 -97.50997 31714 ft 469 kts 97°
2026-05-06 17:10 19.38201 -97.47552 31972 ft 471 kts 97°
2026-05-06 17:10 19.37854 -97.44099 32220 ft 473 kts 97°
2026-05-06 17:10 19.37503 -97.40626 32475 ft 474 kts 97°
2026-05-06 17:10 19.37154 -97.37164 32822 ft 473 kts 97°
2026-05-06 17:11 19.36803 -97.33704 33185 ft 472 kts 97°
2026-05-06 17:11 19.36454 -97.30252 33525 ft 471 kts 97°
2026-05-06 17:11 19.36103 -97.26804 33899 ft 470 kts 97°
2026-05-06 17:11 19.35753 -97.23366 34204 ft 469 kts 97°
2026-05-06 17:12 19.35404 -97.19934 34522 ft 468 kts 97°
2026-05-06 17:12 19.35054 -97.16509 34821 ft 467 kts 97°
2026-05-06 17:12 19.34704 -97.13093 35120 ft 467 kts 97°
2026-05-06 17:12 19.34355 -97.09678 35416 ft 466 kts 97°
2026-05-06 17:13 19.34006 -97.06274 35699 ft 465 kts 97°
2026-05-06 17:13 19.33443 -97.02920 35989 ft 462 kts 105°
2026-05-06 17:13 19.32705 -96.99612 36250 ft 462 kts 104°
2026-05-06 17:13 19.31967 -96.96301 36506 ft 461 kts 104°
2026-05-06 17:14 19.31224 -96.93004 36766 ft 461 kts 104°
2026-05-06 17:14 19.30480 -96.89709 36872 ft 461 kts 104°
2026-05-06 17:14 19.29734 -96.86411 36837 ft 459 kts 104°
2026-05-06 17:15 19.28251 -96.79861 36823 ft 457 kts 104°
2026-05-06 17:15 19.26765 -96.73313 36822 ft 458 kts 104°
2026-05-06 17:16 19.25277 -96.66762 36795 ft 457 kts 104°
2026-05-06 17:16 19.23785 -96.60213 36792 ft 458 kts 104°
2026-05-06 17:17 19.22292 -96.53663 36788 ft 458 kts 104°
2026-05-06 17:17 19.20805 -96.47157 36802 ft 458 kts 104°
2026-05-06 17:18 19.19306 -96.40607 36813 ft 458 kts 104°
2026-05-06 17:18 19.17805 -96.34057 36829 ft 458 kts 104°
2026-05-06 17:19 19.16301 -96.27507 36840 ft 458 kts 104°
2026-05-06 17:19 19.14794 -96.20952 36843 ft 459 kts 104°
2026-05-06 17:20 19.13821 -96.14285 36838 ft 460 kts 98°
2026-05-06 17:20 19.12939 -96.07588 36838 ft 460 kts 99°
2026-05-06 17:21 19.12026 -96.00896 36833 ft 460 kts 99°
2026-05-06 17:21 19.11107 -95.94207 36831 ft 460 kts 99°
2026-05-06 17:22 19.10186 -95.87512 36822 ft 460 kts 99°
2026-05-06 17:22 19.09417 -95.81942 36823 ft 461 kts 99°
2026-05-06 17:23 19.08490 -95.75242 36825 ft 461 kts 99°
2026-05-06 17:23 19.07560 -95.68539 36825 ft 461 kts 99°
2026-05-06 17:24 19.06627 -95.61836 36825 ft 461 kts 99°
2026-05-06 17:24 19.05690 -95.55122 36830 ft 461 kts 99°
2026-05-06 17:25 19.04752 -95.48413 36830 ft 461 kts 99°
2026-05-06 17:25 19.03811 -95.41702 36830 ft 462 kts 99°
2026-05-06 17:26 19.02867 -95.34992 36832 ft 462 kts 99°
2026-05-06 17:26 19.01925 -95.28313 36833 ft 463 kts 99°
2026-05-06 17:27 19.00976 -95.21593 36834 ft 463 kts 99°
2026-05-06 17:27 18.99595 -95.14979 36822 ft 460 kts 116°
2026-05-06 17:27 18.97944 -95.12108 36847 ft 459 kts 128°
2026-05-06 17:28 18.96021 -95.09404 36830 ft 461 kts 128°
2026-05-06 17:28 18.92090 -95.04061 36841 ft 461 kts 129°
2026-05-06 17:29 18.88101 -94.98761 36839 ft 461 kts 129°
2026-05-06 17:29 18.84095 -94.93467 36845 ft 461 kts 129°
2026-05-06 17:30 18.80089 -94.88178 36842 ft 461 kts 129°
2026-05-06 17:30 18.76076 -94.82885 36846 ft 462 kts 129°
2026-05-06 17:31 18.72063 -94.77595 36852 ft 462 kts 129°
2026-05-06 17:31 18.68046 -94.72305 36853 ft 462 kts 129°
2026-05-06 17:32 18.64030 -94.67021 36850 ft 462 kts 129°
2026-05-06 17:32 18.60011 -94.61738 36860 ft 462 kts 129°
2026-05-06 17:33 18.55988 -94.56453 36857 ft 462 kts 129°
2026-05-06 17:33 18.51968 -94.51178 36862 ft 462 kts 129°
2026-05-06 17:34 18.47937 -94.45891 36865 ft 462 kts 129°
2026-05-06 17:34 18.43907 -94.40611 36857 ft 463 kts 129°
2026-05-06 17:35 18.39872 -94.35328 36861 ft 463 kts 129°
2026-05-06 17:35 18.35826 -94.30036 36856 ft 465 kts 130°
2026-05-06 17:36 18.29756 -94.22104 36865 ft 466 kts 130°
2026-05-06 17:36 18.25690 -94.16796 36867 ft 466 kts 130°
2026-05-06 17:37 18.21622 -94.11491 36864 ft 466 kts 130°
2026-05-06 17:37 18.17554 -94.06188 36868 ft 466 kts 130°
2026-05-06 17:38 18.13484 -94.00890 36847 ft 465 kts 130°
2026-05-06 17:38 18.09417 -93.95597 36869 ft 466 kts 130°
2026-05-06 17:39 18.05343 -93.90301 36864 ft 466 kts 130°
2026-05-06 17:39 18.01268 -93.85008 36862 ft 466 kts 130°
2026-05-06 17:40 17.97191 -93.79717 36863 ft 466 kts 130°
2026-05-06 17:40 17.93112 -93.74427 36861 ft 466 kts 130°
2026-05-06 17:41 17.89035 -93.69143 36857 ft 465 kts 130°
2026-05-06 17:41 17.84956 -93.63862 36858 ft 465 kts 130°
2026-05-06 17:42 17.80878 -93.58586 36861 ft 465 kts 130°
2026-05-06 17:42 17.76798 -93.53312 36862 ft 465 kts 130°
2026-05-06 17:43 17.72725 -93.48052 36864 ft 465 kts 130°
2026-05-06 17:43 17.68648 -93.42790 36869 ft 464 kts 130°
2026-05-06 17:44 17.64581 -93.37546 36867 ft 464 kts 130°
2026-05-06 17:44 17.60504 -93.32292 36866 ft 464 kts 130°
2026-05-06 17:45 17.56431 -93.27048 36877 ft 464 kts 130°
2026-05-06 17:45 17.52356 -93.21805 36884 ft 464 kts 130°
2026-05-06 17:46 17.48282 -93.16568 36885 ft 463 kts 130°
2026-05-06 17:46 17.44210 -93.11338 36894 ft 463 kts 130°
2026-05-06 17:47 17.40165 -93.06147 36898 ft 463 kts 130°
2026-05-06 17:47 17.36104 -93.00937 36906 ft 463 kts 130°
2026-05-06 17:48 17.32029 -92.95716 36918 ft 462 kts 130°
2026-05-06 17:48 17.27963 -92.90509 36926 ft 462 kts 130°
2026-05-06 17:49 17.23896 -92.85306 36937 ft 462 kts 130°
2026-05-06 17:49 17.19830 -92.80107 36941 ft 461 kts 130°
2026-05-06 17:50 17.15768 -92.74917 36948 ft 461 kts 130°
2026-05-06 17:50 17.11705 -92.69731 36959 ft 461 kts 129°
2026-05-06 17:51 17.07642 -92.64548 36967 ft 460 kts 129°
2026-05-06 17:51 17.03584 -92.59376 36971 ft 460 kts 129°
2026-05-06 17:52 16.99523 -92.54203 36981 ft 460 kts 129°
2026-05-06 17:52 16.95465 -92.49038 36987 ft 460 kts 129°
2026-05-06 17:53 16.91411 -92.43883 36989 ft 459 kts 129°
2026-05-06 17:53 16.87355 -92.38728 36996 ft 459 kts 129°
2026-05-06 17:54 16.83304 -92.33584 37002 ft 459 kts 129°
2026-05-06 17:54 16.79244 -92.28432 37001 ft 459 kts 129°
2026-05-06 17:55 16.75192 -92.23294 37006 ft 458 kts 129°
2026-05-06 17:55 16.71171 -92.18200 37008 ft 458 kts 129°
2026-05-06 17:56 16.67118 -92.13069 36999 ft 457 kts 129°
2026-05-06 17:56 16.63075 -92.07953 37004 ft 457 kts 129°
2026-05-06 17:57 16.59032 -92.02841 37001 ft 457 kts 129°
2026-05-06 17:57 16.54992 -91.97738 37001 ft 456 kts 130°
2026-05-06 17:58 16.50953 -91.92639 36999 ft 456 kts 129°
2026-05-06 17:58 16.46917 -91.87547 36998 ft 455 kts 129°
2026-05-06 17:59 16.42881 -91.82460 37004 ft 455 kts 129°
2026-05-06 17:59 16.38846 -91.77376 36990 ft 454 kts 129°
2026-05-06 18:00 16.34818 -91.72306 37000 ft 455 kts 129°
2026-05-06 18:00 16.30786 -91.67233 36996 ft 454 kts 129°
2026-05-06 18:01 16.26758 -91.62169 36998 ft 454 kts 129°
2026-05-06 18:01 16.22729 -91.57107 37003 ft 454 kts 129°
2026-05-06 18:02 16.18702 -91.52051 36999 ft 454 kts 129°
2026-05-06 18:02 16.14673 -91.46997 36994 ft 454 kts 129°
2026-05-06 18:03 16.10642 -91.41942 37005 ft 454 kts 129°
2026-05-06 18:03 16.06838 -91.36771 37005 ft 453 kts 121°
2026-05-06 18:04 16.03558 -91.31162 37003 ft 454 kts 121°
2026-05-06 18:04 16.00278 -91.25544 37002 ft 454 kts 121°
2026-05-06 18:05 15.97002 -91.19929 37002 ft 455 kts 121°
2026-05-06 18:05 15.93723 -91.14313 36998 ft 455 kts 121°
2026-05-06 18:06 15.90438 -91.08692 36993 ft 455 kts 121°
2026-05-06 18:06 15.87153 -91.03075 36997 ft 456 kts 121°
2026-05-06 18:07 15.83863 -90.97453 36985 ft 455 kts 121°
2026-05-06 18:07 15.80568 -90.91829 36980 ft 456 kts 121°
2026-05-06 18:08 15.77276 -90.86211 36984 ft 456 kts 121°
2026-05-06 18:08 15.73978 -90.80589 36985 ft 456 kts 121°
2026-05-06 18:09 15.70681 -90.74973 36994 ft 456 kts 121°
2026-05-06 18:09 15.67380 -90.69355 37006 ft 455 kts 121°
2026-05-06 18:10 15.64100 -90.63777 37015 ft 455 kts 121°
2026-05-06 18:10 15.60802 -90.58171 37037 ft 455 kts 121°
2026-05-06 18:11 15.58036 -90.53473 37046 ft 456 kts 121°
2026-05-06 18:11 15.54193 -90.46952 37068 ft 456 kts 121°
2026-05-06 18:12 15.50886 -90.41344 37086 ft 456 kts 121°
2026-05-06 18:12 15.48137 -90.36687 37106 ft 456 kts 121°
2026-05-06 18:13 15.44809 -90.31050 37111 ft 455 kts 122°
2026-05-06 18:13 15.41522 -90.25488 37118 ft 456 kts 121°
2026-05-06 18:14 15.38214 -90.19895 37125 ft 455 kts 121°
2026-05-06 18:14 15.36065 -90.16263 37123 ft 455 kts 121°
2026-05-06 18:15 15.34159 -90.13045 37117 ft 456 kts 122°
2026-05-06 18:15 15.30847 -90.07452 37117 ft 455 kts 122°
2026-05-06 18:16 15.27533 -90.01862 37102 ft 456 kts 122°
2026-05-06 18:16 15.24213 -89.96266 37098 ft 456 kts 122°
2026-05-06 18:17 15.20890 -89.90670 37090 ft 456 kts 121°
2026-05-06 18:17 15.17569 -89.85079 37075 ft 456 kts 122°
2026-05-06 18:18 15.14248 -89.79494 37069 ft 456 kts 122°
2026-05-06 18:18 15.10923 -89.73906 37069 ft 456 kts 122°
2026-05-06 18:19 15.07597 -89.68321 37042 ft 456 kts 122°
2026-05-06 18:19 15.04270 -89.62736 37064 ft 456 kts 122°
2026-05-06 18:20 15.00937 -89.57147 37064 ft 456 kts 122°
2026-05-06 18:20 14.97603 -89.51559 37068 ft 456 kts 122°
2026-05-06 18:21 14.94268 -89.45975 37080 ft 456 kts 122°
2026-05-06 18:21 14.90931 -89.40391 37086 ft 456 kts 122°
2026-05-06 18:22 14.87595 -89.34811 37098 ft 456 kts 122°
2026-05-06 18:22 14.84258 -89.29234 37105 ft 456 kts 122°
2026-05-06 18:23 14.80918 -89.23657 37118 ft 456 kts 122°
2026-05-06 18:23 14.77595 -89.18114 37133 ft 457 kts 122°
2026-05-06 18:24 14.74253 -89.12539 37137 ft 457 kts 122°
2026-05-06 18:24 14.70906 -89.06963 37144 ft 457 kts 122°
2026-05-06 18:25 14.67557 -89.01386 37137 ft 457 kts 122°
2026-05-06 18:25 14.64207 -88.95813 37158 ft 457 kts 122°
2026-05-06 18:26 14.60853 -88.90235 37151 ft 457 kts 122°
2026-05-06 18:26 14.57496 -88.84658 37141 ft 457 kts 122°
2026-05-06 18:27 14.54138 -88.79081 37124 ft 458 kts 122°
2026-05-06 18:27 14.50777 -88.73504 37108 ft 457 kts 122°
2026-05-06 18:28 14.47415 -88.67928 37120 ft 458 kts 122°
2026-05-06 18:28 14.44049 -88.62351 37096 ft 458 kts 122°
2026-05-06 18:29 14.40677 -88.56768 37098 ft 458 kts 122°
2026-05-06 18:29 14.37304 -88.51187 37088 ft 459 kts 122°
2026-05-06 18:30 14.33933 -88.45611 37060 ft 458 kts 122°
2026-05-06 18:30 14.30572 -88.40057 37047 ft 459 kts 122°
2026-05-06 18:31 14.27191 -88.34475 37054 ft 459 kts 122°
2026-05-06 18:31 14.23811 -88.28897 37042 ft 459 kts 122°
2026-05-06 18:32 14.20422 -88.23309 37033 ft 460 kts 122°
2026-05-06 18:32 14.17034 -88.17726 37025 ft 460 kts 122°
2026-05-06 18:33 14.13640 -88.12136 37014 ft 460 kts 122°
2026-05-06 18:33 14.10240 -88.06541 37004 ft 461 kts 122°
2026-05-06 18:34 14.06841 -88.00950 36990 ft 460 kts 122°
2026-05-06 18:34 14.03438 -87.95357 36988 ft 461 kts 122°
2026-05-06 18:35 14.00033 -87.89765 36974 ft 461 kts 122°
2026-05-06 18:35 13.96624 -87.84170 36973 ft 461 kts 122°
2026-05-06 18:36 13.93215 -87.78579 36969 ft 461 kts 122°
2026-05-06 18:36 13.89801 -87.72983 36968 ft 461 kts 122°
2026-05-06 18:37 13.86388 -87.67394 36973 ft 461 kts 122°
2026-05-06 18:37 13.82975 -87.61806 36983 ft 461 kts 122°
2026-05-06 18:38 13.79558 -87.56217 36977 ft 461 kts 122°
2026-05-06 18:38 13.76139 -87.50628 36981 ft 461 kts 122°
2026-05-06 18:39 13.72719 -87.45041 36986 ft 462 kts 122°
2026-05-06 18:40 13.67581 -87.36654 36988 ft 462 kts 122°
2026-05-06 18:40 13.64155 -87.31066 36989 ft 462 kts 122°
2026-05-06 18:41 13.60751 -87.25518 36991 ft 462 kts 122°
2026-05-06 18:41 13.57326 -87.19938 36982 ft 462 kts 122°
2026-05-06 18:42 13.53887 -87.14341 36983 ft 462 kts 122°
2026-05-06 18:42 13.50453 -87.08755 36973 ft 462 kts 122°
2026-05-06 18:43 13.47014 -87.03165 36970 ft 463 kts 122°
2026-05-06 18:43 13.43573 -86.97575 36963 ft 463 kts 122°
2026-05-06 18:44 13.40128 -86.91981 36960 ft 463 kts 122°
2026-05-06 18:44 13.36681 -86.86389 36954 ft 464 kts 122°
2026-05-06 18:45 13.33230 -86.80792 36951 ft 464 kts 122°
2026-05-06 18:45 13.29769 -86.75184 36961 ft 464 kts 122°
2026-05-06 18:46 13.26312 -86.69586 36960 ft 464 kts 122°
2026-05-06 18:46 13.22874 -86.64022 36953 ft 464 kts 122°
2026-05-06 18:47 13.19394 -86.58393 36951 ft 464 kts 122°
2026-05-06 18:47 13.15953 -86.52832 36957 ft 464 kts 122°
2026-05-06 18:48 13.12491 -86.47239 36951 ft 464 kts 122°
2026-05-06 18:48 13.09028 -86.41649 36951 ft 464 kts 122°
2026-05-06 18:49 13.05565 -86.36062 36957 ft 464 kts 122°
2026-05-06 18:49 13.02097 -86.30471 36957 ft 464 kts 123°
2026-05-06 18:50 12.98632 -86.24888 36954 ft 464 kts 123°
2026-05-06 18:50 12.95163 -86.19302 36953 ft 464 kts 123°
2026-05-06 18:51 12.91691 -86.13715 36957 ft 464 kts 123°
2026-05-06 18:51 12.88219 -86.08131 36948 ft 465 kts 123°
2026-05-06 18:52 12.84752 -86.02558 36951 ft 464 kts 123°
2026-05-06 18:52 12.81273 -85.96971 36944 ft 464 kts 123°
2026-05-06 18:53 12.77798 -85.91392 36937 ft 465 kts 123°
2026-05-06 18:53 12.74321 -85.85813 36934 ft 465 kts 123°
2026-05-06 18:54 12.70840 -85.80232 36928 ft 465 kts 123°
2026-05-06 18:54 12.67357 -85.74652 36923 ft 465 kts 123°
2026-05-06 18:55 12.63873 -85.69073 36918 ft 465 kts 123°
2026-05-06 18:55 12.60390 -85.63499 36916 ft 465 kts 123°
2026-05-06 18:56 12.56902 -85.57920 36917 ft 465 kts 122°
2026-05-06 18:56 12.53437 -85.52381 36916 ft 465 kts 122°
2026-05-06 18:57 12.49945 -85.46803 36918 ft 465 kts 122°
2026-05-06 18:57 12.46452 -85.41226 36921 ft 466 kts 122°
2026-05-06 18:58 12.42956 -85.35647 36921 ft 466 kts 122°
2026-05-06 18:58 12.39459 -85.30070 36915 ft 466 kts 122°
2026-05-06 18:59 12.35958 -85.24491 36927 ft 466 kts 122°
2026-05-06 18:59 12.32455 -85.18911 36929 ft 466 kts 122°
2026-05-06 19:00 12.28949 -85.13330 36926 ft 466 kts 122°
2026-05-06 19:00 12.25440 -85.07749 36930 ft 467 kts 122°
2026-05-06 19:01 12.22498 -85.03070 36932 ft 467 kts 122°
2026-05-06 19:01 12.18985 -84.97487 36930 ft 467 kts 122°
2026-05-06 19:02 12.15490 -84.91936 36925 ft 467 kts 122°
2026-05-06 19:02 12.11969 -84.86348 36935 ft 468 kts 122°
2026-05-06 19:03 12.08448 -84.80762 36928 ft 467 kts 122°
2026-05-06 19:03 12.04925 -84.75176 36933 ft 468 kts 122°
2026-05-06 19:04 12.01402 -84.69593 36937 ft 468 kts 122°
2026-05-06 19:04 11.97876 -84.64009 36938 ft 468 kts 122°
2026-05-06 19:05 11.94346 -84.58423 36931 ft 468 kts 122°
2026-05-06 19:05 11.90814 -84.52835 36937 ft 468 kts 122°
2026-05-06 19:06 11.87280 -84.47249 36938 ft 468 kts 122°
2026-05-06 19:06 11.83748 -84.41668 36937 ft 468 kts 122°
2026-05-06 19:07 11.80212 -84.36084 36937 ft 468 kts 122°
2026-05-06 19:07 11.76674 -84.30500 36935 ft 468 kts 122°
2026-05-06 19:08 11.73160 -84.24958 36937 ft 468 kts 122°
2026-05-06 19:08 11.69621 -84.19378 36937 ft 469 kts 122°
2026-05-06 19:09 11.66078 -84.13796 36935 ft 469 kts 123°
2026-05-06 19:09 11.62533 -84.08213 36945 ft 469 kts 122°
2026-05-06 19:10 11.58984 -84.02628 36946 ft 469 kts 123°
2026-05-06 19:10 11.55436 -83.97045 36944 ft 469 kts 123°
2026-05-06 19:11 11.51885 -83.91462 36949 ft 469 kts 123°
2026-05-06 19:11 11.48336 -83.85885 36949 ft 469 kts 123°
2026-05-06 19:12 11.44781 -83.80301 36948 ft 469 kts 123°
2026-05-06 19:12 11.41229 -83.74725 36947 ft 469 kts 123°
2026-05-06 19:13 11.37669 -83.69139 36950 ft 470 kts 123°
2026-05-06 19:13 11.34106 -83.63553 36945 ft 470 kts 123°
2026-05-06 19:14 11.30542 -83.57967 36940 ft 470 kts 123°
2026-05-06 19:14 11.26978 -83.52384 36943 ft 470 kts 123°
2026-05-06 19:15 11.23431 -83.46830 36945 ft 471 kts 123°
2026-05-06 19:15 11.19857 -83.41239 36945 ft 471 kts 123°
2026-05-06 19:16 11.16284 -83.35650 36944 ft 471 kts 123°
2026-05-06 19:16 11.12743 -83.30038 36944 ft 471 kts 123°
2026-05-06 19:17 11.09203 -83.24423 36941 ft 471 kts 123°
2026-05-06 19:17 11.05656 -83.18801 36941 ft 471 kts 123°
2026-05-06 19:18 11.02111 -83.13182 36941 ft 472 kts 123°
2026-05-06 19:18 10.98565 -83.07567 36941 ft 471 kts 123°
2026-05-06 19:19 10.95020 -83.01955 36939 ft 471 kts 123°
2026-05-06 19:19 10.91499 -82.96385 36938 ft 471 kts 123°
2026-05-06 19:20 10.87955 -82.90782 36938 ft 471 kts 123°
2026-05-06 19:20 10.84409 -82.85178 36935 ft 471 kts 123°
2026-05-06 19:21 10.80861 -82.79574 36940 ft 471 kts 123°
2026-05-06 19:21 10.77309 -82.73966 36942 ft 471 kts 123°
2026-05-06 19:22 10.73763 -82.68370 36935 ft 471 kts 123°
2026-05-06 19:22 10.70233 -82.62756 36934 ft 471 kts 122°
2026-05-06 19:23 10.66750 -82.57110 36934 ft 471 kts 122°
2026-05-06 19:23 10.63264 -82.51472 36933 ft 471 kts 122°
2026-05-06 19:24 10.59775 -82.45834 36933 ft 471 kts 122°
2026-05-06 19:24 10.56285 -82.40197 36933 ft 471 kts 122°
2026-05-06 19:25 10.52813 -82.34593 36929 ft 471 kts 122°
2026-05-06 19:25 10.49321 -82.28956 36932 ft 471 kts 122°
2026-05-06 19:26 10.45822 -82.23314 36930 ft 472 kts 122°
2026-05-06 19:26 10.42325 -82.17676 36932 ft 472 kts 122°
2026-05-06 19:27 10.38825 -82.12038 36928 ft 472 kts 123°
2026-05-06 19:27 10.35321 -82.06395 36928 ft 472 kts 123°
2026-05-06 19:28 10.31817 -82.00757 36926 ft 472 kts 123°
2026-05-06 19:28 10.28314 -81.95121 36925 ft 472 kts 123°
2026-05-06 19:29 10.24808 -81.89484 36926 ft 472 kts 123°
2026-05-06 19:29 10.21299 -81.83844 36923 ft 472 kts 123°
2026-05-06 19:30 10.17789 -81.78206 36927 ft 472 kts 123°
2026-05-06 19:30 10.14280 -81.72573 36923 ft 472 kts 123°
2026-05-06 19:31 10.10771 -81.66941 36921 ft 472 kts 122°
2026-05-06 19:31 10.05524 -81.58527 36920 ft 472 kts 122°
2026-05-06 19:32 10.02010 -81.52894 36920 ft 473 kts 122°
2026-05-06 19:32 9.98494 -81.47262 36918 ft 472 kts 122°
2026-05-06 19:33 9.94975 -81.41628 36921 ft 473 kts 122°
2026-05-06 19:33 9.91459 -81.36001 36919 ft 472 kts 122°
2026-05-06 19:34 9.87940 -81.30372 36927 ft 472 kts 122°
2026-05-06 19:34 9.84424 -81.24750 36920 ft 472 kts 122°
2026-05-06 19:35 9.80908 -81.19130 36917 ft 472 kts 122°
2026-05-06 19:35 9.77393 -81.13516 36917 ft 472 kts 122°
2026-05-06 19:36 9.73874 -81.07899 36918 ft 472 kts 122°
2026-05-06 19:36 9.70358 -81.02286 36914 ft 472 kts 122°
2026-05-06 19:37 9.66839 -80.96672 36914 ft 472 kts 122°
2026-05-06 19:37 9.63912 -80.92006 36917 ft 472 kts 122°
2026-05-06 19:38 9.59824 -80.85490 36910 ft 471 kts 122°
2026-05-06 19:38 9.56320 -80.79873 36908 ft 471 kts 122°
2026-05-06 19:39 9.52815 -80.74257 36907 ft 472 kts 122°
2026-05-06 19:39 9.49306 -80.68638 36905 ft 471 kts 122°
2026-05-06 19:40 9.45799 -80.63026 36907 ft 471 kts 122°
2026-05-06 19:40 9.42293 -80.57417 36903 ft 472 kts 122°
2026-05-06 19:41 9.38783 -80.51803 36907 ft 472 kts 122°
2026-05-06 19:41 9.35269 -80.46187 36907 ft 472 kts 122°
2026-05-06 19:42 9.31755 -80.40573 36903 ft 472 kts 122°
2026-05-06 19:42 9.28231 -80.34946 36906 ft 473 kts 122°
2026-05-06 19:43 9.24709 -80.29323 36903 ft 473 kts 122°
2026-05-06 19:43 9.21183 -80.23698 36897 ft 473 kts 122°
2026-05-06 19:44 9.17657 -80.18075 36901 ft 473 kts 122°
2026-05-06 19:44 9.14129 -80.12451 36892 ft 473 kts 122°
2026-05-06 19:45 9.10602 -80.06832 36899 ft 473 kts 122°
2026-05-06 19:45 9.07070 -80.01207 36894 ft 473 kts 122°
2026-05-06 19:46 9.03544 -79.95593 36894 ft 473 kts 122°
2026-05-06 19:46 9.00019 -79.89984 36893 ft 473 kts 122°
2026-05-06 19:47 8.96510 -79.84403 36890 ft 473 kts 122°
2026-05-06 19:47 8.92962 -79.78762 36885 ft 472 kts 122°
2026-05-06 19:48 8.89457 -79.73192 36887 ft 472 kts 122°
2026-05-06 19:48 8.85940 -79.67605 36883 ft 471 kts 122°
2026-05-06 19:49 8.83247 -79.63329 36882 ft 471 kts 122°
2026-05-06 19:49 8.79727 -79.57747 36883 ft 470 kts 124°
2026-05-06 19:50 8.77635 -79.55222 36882 ft 468 kts 137°
2026-05-06 19:50 8.75250 -79.52974 36876 ft 470 kts 136°
2026-05-06 19:50 8.70499 -79.48432 36880 ft 470 kts 137°
2026-05-06 19:51 8.65709 -79.43917 36877 ft 471 kts 137°
2026-05-06 19:51 8.60917 -79.39408 36875 ft 471 kts 137°
2026-05-06 19:52 8.56121 -79.34896 36870 ft 472 kts 137°
2026-05-06 19:52 8.52129 -79.31142 36870 ft 472 kts 137°
2026-05-06 19:53 8.47287 -79.26591 36875 ft 472 kts 137°
2026-05-06 19:53 8.42508 -79.22101 36873 ft 473 kts 137°
2026-05-06 19:54 8.37694 -79.17579 36875 ft 473 kts 137°
2026-05-06 19:54 8.32874 -79.13053 36872 ft 473 kts 137°
2026-05-06 19:55 8.28048 -79.08523 36868 ft 474 kts 137°
2026-05-06 19:55 8.23222 -79.03995 36870 ft 473 kts 137°
2026-05-06 19:56 8.18401 -78.99473 36871 ft 472 kts 137°
2026-05-06 19:56 8.13588 -78.94960 36871 ft 472 kts 137°
2026-05-06 19:57 8.08786 -78.90459 36871 ft 471 kts 137°
2026-05-06 19:57 8.03989 -78.85963 36871 ft 470 kts 137°
2026-05-06 19:58 7.99197 -78.81475 36869 ft 470 kts 137°
2026-05-06 19:58 7.94407 -78.76990 36869 ft 469 kts 136°
2026-05-06 19:59 7.89628 -78.72516 36868 ft 469 kts 136°
2026-05-06 19:59 7.84850 -78.68045 36866 ft 468 kts 136°
2026-05-06 20:00 7.80076 -78.63579 36866 ft 468 kts 136°
2026-05-06 20:00 7.75308 -78.59121 36868 ft 467 kts 136°
2026-05-06 20:01 7.70545 -78.54668 36870 ft 467 kts 136°
2026-05-06 20:01 7.65784 -78.50219 36870 ft 466 kts 136°
2026-05-06 20:02 7.61056 -78.45802 36870 ft 466 kts 136°
2026-05-06 20:02 7.56303 -78.41362 36868 ft 466 kts 136°
2026-05-06 20:03 7.51555 -78.36929 36870 ft 465 kts 136°
2026-05-06 20:03 7.47113 -78.32783 36872 ft 465 kts 136°
2026-05-06 20:04 7.42401 -78.28382 36871 ft 464 kts 136°
2026-05-06 20:04 7.37658 -78.23962 36873 ft 464 kts 136°
2026-05-06 20:05 7.32915 -78.19538 36874 ft 465 kts 136°
2026-05-06 20:05 7.28173 -78.15118 36871 ft 465 kts 136°
2026-05-06 20:06 7.23433 -78.10700 36871 ft 465 kts 136°
2026-05-06 20:06 7.18685 -78.06277 36869 ft 465 kts 136°
2026-05-06 20:07 7.13938 -78.01855 36870 ft 464 kts 136°
2026-05-06 20:07 7.09230 -77.97410 36869 ft 464 kts 135°
2026-05-06 20:08 7.04545 -77.92927 36867 ft 464 kts 135°
2026-05-06 20:08 6.99867 -77.88457 36870 ft 464 kts 135°
2026-05-06 20:09 6.95180 -77.83982 36870 ft 464 kts 136°
2026-05-06 20:09 6.90494 -77.79508 36870 ft 464 kts 136°
2026-05-06 20:10 6.85810 -77.75037 36870 ft 464 kts 136°
2026-05-06 20:10 6.81117 -77.70559 36869 ft 464 kts 136°
2026-05-06 20:11 6.76433 -77.66090 36866 ft 464 kts 136°
2026-05-06 20:11 6.71743 -77.61617 36867 ft 464 kts 136°
2026-05-06 20:12 6.67058 -77.57150 36866 ft 464 kts 136°
2026-05-06 20:12 6.62374 -77.52685 36866 ft 464 kts 136°
2026-05-06 20:13 6.57686 -77.48218 36867 ft 464 kts 135°
2026-05-06 20:13 6.53035 -77.43788 36865 ft 463 kts 136°
2026-05-06 20:14 6.48355 -77.39330 36866 ft 463 kts 136°
2026-05-06 20:14 6.43675 -77.34874 36866 ft 463 kts 136°
2026-05-06 20:15 6.39001 -77.30426 36858 ft 463 kts 136°
2026-05-06 20:15 6.34325 -77.25975 36860 ft 463 kts 136°
2026-05-06 20:16 6.29650 -77.21528 36860 ft 462 kts 136°
2026-05-06 20:16 6.24982 -77.17088 36860 ft 462 kts 136°
2026-05-06 20:17 6.20309 -77.12644 36865 ft 462 kts 136°
2026-05-06 20:17 6.15638 -77.08204 36859 ft 462 kts 136°
2026-05-06 20:18 6.10966 -77.03764 36860 ft 462 kts 136°
2026-05-06 20:18 6.06297 -76.99327 36858 ft 462 kts 136°
2026-05-06 20:19 6.01630 -76.94894 36857 ft 462 kts 136°
2026-05-06 20:19 5.96997 -76.90494 36854 ft 461 kts 136°
2026-05-06 20:20 5.92332 -76.86065 36849 ft 461 kts 136°
2026-05-06 20:20 5.87667 -76.81637 36844 ft 461 kts 136°
2026-05-06 20:21 5.83003 -76.77211 36838 ft 462 kts 136°
2026-05-06 20:21 5.78329 -76.72776 36648 ft 462 kts 136°
2026-05-06 20:22 5.75996 -76.70563 36444 ft 461 kts 136°
2026-05-06 20:22 5.73669 -76.68356 36229 ft 461 kts 136°
2026-05-06 20:22 5.71343 -76.66150 35943 ft 460 kts 135°
2026-05-06 20:22 5.69270 -76.63722 35637 ft 457 kts 121°
2026-05-06 20:23 5.67767 -76.60890 35360 ft 458 kts 116°
2026-05-06 20:23 5.66343 -76.58075 35087 ft 459 kts 116°
2026-05-06 20:23 5.64918 -76.55204 34808 ft 460 kts 116°
2026-05-06 20:23 5.63503 -76.52314 34535 ft 461 kts 116°
2026-05-06 20:24 5.62100 -76.49426 34275 ft 461 kts 116°
2026-05-06 20:24 5.60693 -76.46524 34012 ft 462 kts 116°
2026-05-06 20:24 5.59286 -76.43622 33748 ft 463 kts 116°
2026-05-06 20:24 5.57877 -76.40714 33458 ft 464 kts 116°
2026-05-06 20:25 5.56467 -76.37804 33163 ft 464 kts 116°
2026-05-06 20:25 5.55051 -76.34883 32879 ft 465 kts 116°
2026-05-06 20:25 5.53637 -76.31965 32602 ft 466 kts 116°
2026-05-06 20:25 5.52223 -76.29039 32329 ft 466 kts 115°
2026-05-06 20:26 5.50807 -76.26108 32056 ft 467 kts 115°
2026-05-06 20:26 5.49390 -76.23174 31769 ft 467 kts 115°
2026-05-06 20:26 5.47972 -76.20241 31498 ft 468 kts 115°
2026-05-06 20:26 5.46550 -76.17298 31224 ft 468 kts 115°
2026-05-06 20:27 5.45127 -76.14353 30959 ft 469 kts 115°
2026-05-06 20:27 5.43706 -76.11414 30696 ft 465 kts 115°
2026-05-06 20:27 5.42313 -76.08533 30436 ft 453 kts 115°
2026-05-06 20:27 5.40953 -76.05719 30192 ft 442 kts 115°
2026-05-06 20:28 5.39628 -76.02980 29918 ft 432 kts 115°
2026-05-06 20:28 5.38333 -76.00301 29614 ft 422 kts 115°
2026-05-06 20:28 5.37065 -75.97680 29314 ft 413 kts 115°
2026-05-06 20:28 5.35823 -75.95113 29019 ft 405 kts 115°
2026-05-06 20:29 5.34606 -75.92597 28730 ft 397 kts 115°
2026-05-06 20:29 5.33412 -75.90130 28430 ft 389 kts 115°
2026-05-06 20:29 5.32240 -75.87707 28138 ft 383 kts 115°
2026-05-06 20:29 5.31088 -75.85326 27848 ft 376 kts 115°
2026-05-06 20:30 5.29953 -75.82983 27569 ft 371 kts 115°
2026-05-06 20:30 5.27733 -75.78398 27004 ft 360 kts 115°
2026-05-06 20:30 5.26645 -75.76151 26755 ft 362 kts 115°
2026-05-06 20:31 5.25524 -75.73836 26545 ft 376 kts 115°
2026-05-06 20:31 5.24364 -75.71440 26420 ft 387 kts 115°
2026-05-06 20:31 5.23177 -75.68989 26311 ft 393 kts 115°
2026-05-06 20:31 5.21990 -75.66541 26218 ft 397 kts 115°
2026-05-06 20:32 5.20766 -75.64013 26141 ft 398 kts 115°
2026-05-06 20:32 5.19570 -75.61545 26059 ft 399 kts 115°
2026-05-06 20:32 5.18359 -75.59045 25973 ft 398 kts 115°
2026-05-06 20:32 5.17150 -75.56552 25856 ft 398 kts 115°
2026-05-06 20:33 5.15941 -75.54057 25690 ft 397 kts 115°
2026-05-06 20:33 5.14733 -75.51567 25447 ft 396 kts 115°
2026-05-06 20:33 5.13462 -75.49128 25209 ft 395 kts 123°
2026-05-06 20:33 5.11778 -75.46957 24976 ft 395 kts 127°
2026-05-06 20:34 5.10079 -75.44790 24715 ft 393 kts 127°
2026-05-06 20:34 5.08386 -75.42641 24449 ft 392 kts 127°
2026-05-06 20:34 5.06694 -75.40504 24203 ft 391 kts 127°
2026-05-06 20:34 5.05012 -75.38380 23949 ft 389 kts 127°
2026-05-06 20:35 5.03327 -75.36255 23638 ft 388 kts 127°
2026-05-06 20:35 5.01650 -75.34141 23303 ft 386 kts 127°
2026-05-06 20:35 4.99987 -75.32042 22999 ft 384 kts 127°
2026-05-06 20:35 4.98333 -75.29956 22670 ft 381 kts 127°
2026-05-06 20:36 4.96689 -75.27884 22357 ft 378 kts 127°
2026-05-06 20:36 4.95053 -75.25822 22043 ft 376 kts 127°
2026-05-06 20:36 4.93428 -75.23772 21727 ft 374 kts 127°
2026-05-06 20:36 4.91813 -75.21737 21422 ft 372 kts 127°
2026-05-06 20:37 4.90207 -75.19713 21114 ft 370 kts 127°
2026-05-06 20:37 4.88609 -75.17698 20814 ft 368 kts 127°
2026-05-06 20:37 4.87018 -75.15693 20501 ft 366 kts 127°
2026-05-06 20:37 4.85437 -75.13700 20207 ft 364 kts 127°
2026-05-06 20:38 4.84072 -75.11587 19931 ft 359 kts 111°
2026-05-06 20:38 4.83391 -75.09199 19693 ft 356 kts 101°
2026-05-06 20:38 4.83191 -75.06753 19430 ft 351 kts 83°
2026-05-06 20:38 4.83838 -75.04435 19231 ft 342 kts 65°
2026-05-06 20:39 4.85081 -75.02442 19089 ft 334 kts 52°
2026-05-06 20:39 4.86576 -75.00698 18943 ft 325 kts 51°
2026-05-06 20:39 4.88021 -74.98993 18799 ft 317 kts 51°
2026-05-06 20:39 4.89431 -74.97318 18629 ft 312 kts 51°
2026-05-06 20:40 4.90822 -74.95656 18475 ft 311 kts 52°
2026-05-06 20:40 4.91737 -74.94558 18366 ft 310 kts 52°
2026-05-06 20:40 4.93117 -74.92900 18213 ft 309 kts 52°
2026-05-06 20:40 4.94491 -74.91246 18032 ft 309 kts 52°
2026-05-06 20:41 4.95865 -74.89593 17854 ft 308 kts 52°
2026-05-06 20:41 4.97678 -74.87410 17625 ft 307 kts 52°
2026-05-06 20:41 4.98600 -74.86300 17503 ft 307 kts 52°
2026-05-06 20:41 4.99964 -74.84657 17333 ft 306 kts 52°
2026-05-06 20:42 5.01324 -74.83020 17164 ft 305 kts 52°
2026-05-06 20:42 5.02683 -74.81384 16991 ft 304 kts 52°
2026-05-06 20:42 5.04035 -74.79755 16825 ft 304 kts 52°
2026-05-06 20:42 5.05386 -74.78127 16666 ft 303 kts 52°
2026-05-06 20:43 5.06614 -74.76434 16471 ft 297 kts 67°
2026-05-06 20:43 5.07045 -74.74460 16287 ft 288 kts 90°
2026-05-06 20:43 5.06809 -74.72494 16104 ft 282 kts 103°
2026-05-06 20:43 5.06107 -74.70683 15904 ft 277 kts 115°
2026-05-06 20:44 5.05264 -74.69001 15707 ft 271 kts 115°
2026-05-06 20:44 5.04420 -74.67336 15506 ft 266 kts 115°
2026-05-06 20:44 5.03585 -74.65695 15311 ft 262 kts 115°
2026-05-06 20:44 5.02760 -74.64079 15120 ft 260 kts 115°
2026-05-06 20:45 5.01937 -74.62469 14932 ft 258 kts 115°
2026-05-06 20:45 5.01123 -74.60872 14737 ft 256 kts 115°
2026-05-06 20:45 5.00316 -74.59287 14549 ft 254 kts 115°
2026-05-06 20:45 4.99512 -74.57712 14351 ft 253 kts 115°
2026-05-06 20:46 4.98713 -74.56147 14150 ft 251 kts 115°
2026-05-06 20:46 4.97920 -74.54589 13961 ft 251 kts 115°
2026-05-06 20:46 4.97127 -74.53035 13797 ft 251 kts 115°
2026-05-06 20:46 4.96333 -74.51476 13555 ft 250 kts 115°
2026-05-06 20:47 4.95545 -74.49932 13350 ft 248 kts 115°
2026-05-06 20:47 4.94761 -74.48397 13175 ft 247 kts 115°
2026-05-06 20:47 4.93980 -74.46865 12984 ft 246 kts 115°
2026-05-06 20:47 4.93204 -74.45343 12802 ft 245 kts 115°
2026-05-06 20:48 4.92493 -74.43950 12635 ft 244 kts 115°
2026-05-06 20:48 4.91720 -74.42435 12467 ft 244 kts 116°
2026-05-06 20:48 4.90856 -74.40971 12346 ft 244 kts 124°
2026-05-06 20:48 4.89790 -74.39644 12242 ft 245 kts 130°
2026-05-06 20:49 4.88650 -74.38379 12094 ft 244 kts 130°
2026-05-06 20:49 4.87525 -74.37119 11881 ft 240 kts 131°
2026-05-06 20:49 4.86423 -74.35884 11714 ft 235 kts 129°
2026-05-06 20:49 4.85359 -74.34675 11577 ft 226 kts 129°
2026-05-06 20:50 4.84337 -74.33512 11398 ft 219 kts 129°
2026-05-06 20:50 4.83336 -74.32375 11309 ft 216 kts 129°
2026-05-06 20:50 4.82313 -74.31266 11211 ft 217 kts 135°
2026-05-06 20:50 4.81202 -74.30252 11115 ft 211 kts 131°
2026-05-06 20:51 4.80285 -74.29170 11002 ft 198 kts 126°
2026-05-06 20:51 4.79476 -74.28099 10911 ft 191 kts 125°
2026-05-06 20:51 4.78682 -74.27042 10721 ft 189 kts 126°
2026-05-06 20:51 4.77902 -74.26008 10548 ft 177 kts 126°
2026-05-06 20:52 4.77193 -74.25066 10366 ft 165 kts 125°
2026-05-06 20:52 4.76513 -74.24164 10187 ft 162 kts 125°
2026-05-06 20:52 4.75830 -74.23256 10012 ft 164 kts 126°
2026-05-06 20:52 4.75145 -74.22349 9791 ft 162 kts 125°
2026-05-06 20:53 4.74471 -74.21450 9585 ft 161 kts 124°
2026-05-06 20:53 4.73803 -74.20564 9349 ft 162 kts 126°
2026-05-06 20:53 4.73121 -74.19656 9120 ft 163 kts 127°
2026-05-06 20:53 4.72435 -74.18753 8901 ft 162 kts 128°
2026-05-06 20:54 4.71762 -74.17853 8670 ft 159 kts 129°
2026-05-06 20:54 4.71103 -74.16984 8425 ft 154 kts 129°
2026-05-06 20:54 4.70497 -74.16192 8369 ft 120 kts 127°
2026-05-06 20:54 4.70128 -74.15703 8367 ft 59 kts 126°
2026-05-06 20:55 4.69946 -74.15463 8368 ft 26 kts 127°
2026-05-06 20:55 4.69871 -74.15364 8369 ft 24 kts 127°
2026-05-06 20:55 4.69763 -74.15211 8368 ft 28 kts 117°
2026-05-06 20:55 4.69717 -74.15057 8367 ft 15 kts 100°
2026-05-06 20:56 4.69701 -74.14954 8366 ft 15 kts 96°
2026-05-06 20:56 4.69709 -74.14849 8367 ft 15 kts 62°
2026-05-06 20:56 4.69789 -74.14781 8367 ft 15 kts 37°
2026-05-06 20:56 4.69875 -74.14715 8367 ft 16 kts 36°
2026-05-06 20:57 4.69964 -74.14648 8368 ft 16 kts 37°
2026-05-06 20:57 4.70046 -74.14586 8368 ft 7 kts 46°
2026-05-06 20:57 4.70044 -74.14550 8368 ft 5 kts 128°
2026-05-06 20:57 4.70024 -74.14523 8368 ft 6 kts 127°
2026-05-06 20:58 4.69994 -74.14484 8368 ft 8 kts 127°
2026-05-06 20:58 4.69961 -74.14439 8368 ft 8 kts 127°
2026-05-06 20:58 4.69925 -74.14390 8368 ft 9 kts 127°
2026-05-06 20:58 4.69884 -74.14343 8368 ft 6 kts 152°
2026-05-06 20:59 4.69879 -74.14344 8368 ft 1 kts 193°
2026-05-06 20:59 4.69853 -74.14369 8367 ft 5 kts 227°
2026-05-06 20:59 4.69835 -74.14387 8367 ft 2 kts 226°
2026-05-06 20:59 4.69829 -74.14394 8368 ft 0 kts 226°
2026-05-06 21:53 4.69829 -74.14393 8367 ft 0 kts 226°
2026-05-06 21:57 4.69830 -74.14393 8367 ft 0 kts 226°